Back to catalog

SL-16 DEB

AliveLEO
NORAD 27760·DEBRIS·🇷🇺 Russia

Launched Nov 24, 1994 from Baikonur Cosmodrome

Loading…

Next Passes (next 24 hours)

TLE

FreshSource: Space-Track

Epoch: Sep 14, 2026, 07:58 UTC

1 27760U 94077M   26257.33257037  .00002734  00000-0  46921-3 0  9992
2 27760  70.9914 231.6712 0040028 107.2747 322.9373 14.69154326403140

Track SL-16 DEB in real time with AllMySat

Download on the App Store